| time (UTC) | temp C | wind direction | speed KPH | gust KPH | rain 1hr cm | rain 24hr cm | rain mn cm | humidity % | barometer mb |
| 20260901040414 | 15 | 125 | 0.0 | 1.6 | 0.00 | 0.00 | 0.00 | 76 | 1011.8 |
| 20260901035908 | 15 | 105 | 0.0 | 4.8 | 0.00 | 0.00 | 0.00 | 76 | 1011.8 |
| 20260901035406 | 15 | 89 | 0.0 | 4.8 | 0.00 | 0.00 | 0.00 | 75 | 1011.8 |
| 20260901034905 | 15 | 41 | 1.6 | 1.6 | 0.00 | 0.00 | 0.00 | 75 | 1011.8 |
| 20260901034400 | 15 | 83 | 0.0 | 3.2 | 0.00 | 0.00 | 0.00 | 74 | 1011.8 |
| 20260901033855 | 16 | 338 | 1.6 | 3.2 | 0.00 | 0.00 | 0.00 | 73 | 1011.8 |
| 20260901033354 | 16 | 22 | 3.2 | 4.8 | 0.00 | 0.00 | 0.00 | 73 | 1011.8 |
| 20260901032853 | 16 | 58 | 1.6 | 4.8 | 0.00 | 0.00 | 0.00 | 72 | 1011.8 |
| 20260901032352 | 16 | 343 | 1.6 | 4.8 | 0.00 | 0.00 | 0.00 | 71 | 1011.3 |
| 20260901031848 | 16 | 342 | 3.2 | 9.7 | 0.00 | 0.00 | 0.00 | 71 | 1011.8 |
| 20260901031343 | 16 | 86 | 1.6 | 4.8 | 0.00 | 0.00 | 0.00 | 71 | 1011.3 |
| 20260901030843 | 16 | 111 | 1.6 | 3.2 | 0.00 | 0.00 | 0.00 | 70 | 1011.8 |
| 20260901030338 | 17 | 87 | 1.6 | 1.6 | 0.00 | 0.00 | 0.00 | 69 | 1011.3 |
| 20260901025837 | 17 | 85 | 1.6 | 4.8 | 0.00 | 0.00 | 0.00 | 69 | 1011.8 |
| 20260901025332 | 17 | 96 | 1.6 | 4.8 | 0.00 | 0.00 | 0.00 | 68 | 1011.8 |
| 20260901024827 | 17 | 114 | 1.6 | 6.4 | 0.00 | 0.00 | 0.00 | 68 | 1011.8 |
| 20260901024326 | 17 | 86 | 1.6 | 3.2 | 0.00 | 0.00 | 0.00 | 67 | 1011.8 |
| 20260901023824 | 18 | 94 | 1.6 | 1.6 | 0.00 | 0.00 | 0.00 | 66 | 1011.3 |
| 20260901023320 | 18 | 103 | 0.0 | 1.6 | 0.00 | 0.00 | 0.00 | 65 | 1011.8 |
| 20260901022815 | 18 | 96 | 0.0 | 1.6 | 0.00 | 0.00 | 0.00 | 65 | 1011.8 |
| 20260901022311 | 18 | 103 | 1.6 | 1.6 | 0.00 | 0.00 | 0.00 | 64 | 1011.8 |
| 20260901021806 | 18 | 59 | 1.6 | 3.2 | 0.00 | 0.00 | 0.00 | 64 | 1011.8 |
| 20260901021302 | 18 | 104 | 0.0 | 3.2 | 0.00 | 0.00 | 0.00 | 64 | 1011.8 |
| 20260901020756 | 18 | 66 | 1.6 | 3.2 | 0.00 | 0.00 | 0.00 | 64 | 1011.8 |
| 20260901020251 | 18 | 89 | 1.6 | 4.8 | 0.00 | 0.00 | 0.00 | 64 | 1011.8 |
| 20260901015746 | 18 | 90 | 0.0 | 3.2 | 0.00 | 0.00 | 0.00 | 65 | 1011.8 |
| 20260901015242 | 18 | 148 | 0.0 | 9.7 | 0.00 | 0.00 | 0.00 | 65 | 1011.8 |
| 20260901014736 | 18 | 100 | 0.0 | 6.4 | 0.00 | 0.00 | 0.00 | 66 | 1011.8 |
| 20260901014232 | 18 | 291 | 3.2 | 4.8 | 0.00 | 0.00 | 0.00 | 65 | 1011.8 |
| 20260901013728 | 18 | 98 | 1.6 | 6.4 | 0.00 | 0.00 | 0.00 | 65 | 1011.8 |
| 20260901013223 | 18 | 226 | 1.6 | 4.8 | 0.00 | 0.00 | 0.00 | 65 | 1011.8 |
| 20260901012718 | 18 | 146 | 0.0 | 3.2 | 0.00 | 0.00 | 0.00 | 65 | 1011.8 |
| 20260901012218 | 20 | 303 | 3.2 | 4.8 | 0.00 | 0.00 | 0.00 | 62 | 1012.1 |
| 20260901011714 | 20 | 225 | 3.2 | 3.2 | 0.00 | 0.00 | 0.00 | 62 | 1011.8 |
| 20260901011214 | 19 | 73 | 3.2 | 4.8 | 0.00 | 0.00 | 0.00 | 63 | 1012.1 |
| 20260901010708 | 20 | 345 | 4.8 | 9.7 | 0.00 | 0.00 | 0.00 | 62 | 1011.8 |
| 20260901010202 | 20 | 38 | 1.6 | 3.2 | 0.00 | 0.00 | 0.00 | 61 | 1012.1 |
| 20260901005656 | 20 | 111 | 1.6 | 1.6 | 0.00 | 0.00 | 0.00 | 60 | 1012.1 |
| 20260901005152 | 21 | 90 | 1.6 | 4.8 | 0.00 | 0.00 | 0.00 | 59 | 1012.1 |
| 20260901004652 | 22 | 359 | 3.2 | 3.2 | 0.00 | 0.00 | 0.00 | 56 | 1012.1 |
| 20260901004146 | 22 | 112 | 0.0 | 4.8 | 0.00 | 0.00 | 0.00 | 56 | 1012.5 |
| 20260901003640 | 21 | 112 | 1.6 | 3.2 | 0.00 | 0.00 | 0.00 | 58 | 1012.1 |
| 20260901003139 | 21 | 106 | 1.6 | 4.8 | 0.00 | 0.00 | 0.00 | 59 | 1012.1 |
| 20260901002634 | 22 | 314 | 4.8 | 4.8 | 0.00 | 0.00 | 0.00 | 56 | 1012.5 |
| 20260901002128 | 21 | 111 | 1.6 | 4.8 | 0.00 | 0.00 | 0.00 | 58 | 1012.5 |
| 20260901001624 | 21 | 130 | 0.0 | 1.6 | 0.00 | 0.00 | 0.00 | 59 | 1012.5 |
| 20260901001119 | 20 | 320 | 3.2 | 3.2 | 0.00 | 0.00 | 0.00 | 60 | 1012.5 |
| 20260901000614 | 20 | 236 | 3.2 | 6.4 | 0.00 | 0.00 | 0.00 | 61 | 1012.5 |
| 20260901000109 | 21 | 333 | 4.8 | 11.3 | 0.00 | 0.00 | 0.00 | 59 | 1012.5 |
| 20260831235602 | 21 | 306 | 3.2 | 6.4 | 0.00 | 0.00 | 0.00 | 60 | 1012.5 |
| 20260831235058 | 20 | 354 | 3.2 | 4.8 | 0.00 | 0.00 | 0.00 | 61 | 1012.5 |
| 20260831234552 | 20 | 21 | 4.8 | 9.7 | 0.00 | 0.00 | 0.00 | 60 | 1012.5 |
| 20260831234048 | 21 | 64 | 3.2 | 6.4 | 0.00 | 0.00 | 0.00 | 60 | 1012.5 |
| 20260831233543 | 21 | 340 | 4.8 | 4.8 | 0.00 | 0.00 | 0.00 | 58 | 1012.5 |
| 20260831233039 | 22 | 101 | 1.6 | 6.4 | 0.00 | 0.00 | 0.00 | 57 | 1012.8 |
| 20260831232534 | 22 | 169 | 0.0 | 9.7 | 0.00 | 0.00 | 0.00 | 58 | 1012.8 |
| 20260831232030 | 22 | 188 | 1.6 | 3.2 | 0.00 | 0.00 | 0.00 | 55 | 1012.8 |
| 20260831231526 | 21 | 128 | 1.6 | 6.4 | 0.00 | 0.00 | 0.00 | 58 | 1013.1 |
| 20260831231021 | 21 | 109 | 0.0 | 4.8 | 0.00 | 0.00 | 0.00 | 59 | 1012.8 |
| 20260831230516 | 21 | 115 | 1.6 | 12.9 | 0.00 | 0.00 | 0.00 | 60 | 1012.8 |
| 20260831230011 | 21 | 341 | 3.2 | 9.7 | 0.00 | 0.00 | 0.00 | 60 | 1013.1 |
| 20260831225507 | 21 | 70 | 4.8 | 11.3 | 0.00 | 0.00 | 0.00 | 60 | 1013.1 |
| 20260831225006 | 20 | 109 | 1.6 | 11.3 | 0.00 | 0.00 | 0.00 | 62 | 1013.1 |
| 20260831224501 | 22 | 316 | 4.8 | 6.4 | 0.00 | 0.00 | 0.00 | 58 | 1013.5 |
| 20260831223956 | 21 | 63 | 1.6 | 6.4 | 0.00 | 0.00 | 0.00 | 60 | 1013.1 |
| 20260831223451 | 21 | 26 | 3.2 | 4.8 | 0.00 | 0.00 | 0.00 | 59 | 1013.1 |
| 20260831222947 | 21 | 124 | 1.6 | 4.8 | 0.00 | 0.00 | 0.00 | 61 | 1013.5 |
| 20260831222443 | 20 | 90 | 1.6 | 3.2 | 0.00 | 0.00 | 0.00 | 61 | 1013.5 |
| 20260831221938 | 21 | 55 | 3.2 | 9.7 | 0.00 | 0.00 | 0.00 | 59 | 1013.5 |
| 20260831221434 | 20 | 313 | 1.6 | 4.8 | 0.00 | 0.00 | 0.00 | 64 | 1013.5 |
| 20260831220929 | 20 | 345 | 3.2 | 6.4 | 0.00 | 0.00 | 0.00 | 63 | 1013.5 |
| 20260831220424 | 21 | 331 | 3.2 | 3.2 | 0.00 | 0.00 | 0.00 | 60 | 1013.5 |
| 20260831215919 | 20 | 71 | 3.2 | 6.4 | 0.00 | 0.00 | 0.00 | 62 | 1013.8 |
| 20260831215415 | 21 | 336 | 6.4 | 9.7 | 0.00 | 0.00 | 0.00 | 61 | 1013.8 |
| 20260831214911 | 21 | 182 | 0.0 | 3.2 | 0.00 | 0.00 | 0.00 | 60 | 1013.8 |
| 20260831214409 | 20 | 194 | 3.2 | 6.4 | 0.00 | 0.00 | 0.00 | 64 | 1013.8 |
| 20260831213904 | 21 | 317 | 1.6 | 6.4 | 0.00 | 0.00 | 0.00 | 61 | 1014.1 |
| 20260831213401 | 22 | 108 | 1.6 | 4.8 | 0.00 | 0.00 | 0.00 | 57 | 1014.1 |
| 20260831212855 | 20 | 120 | 1.6 | 11.3 | 0.00 | 0.00 | 0.00 | 62 | 1014.1 |
| 20260831212352 | 20 | 55 | 1.6 | 4.8 | 0.00 | 0.00 | 0.00 | 64 | 1013.8 |
| 20260831211850 | 20 | 45 | 4.8 | 9.7 | 0.00 | 0.00 | 0.00 | 64 | 1014.1 |
| 20260831211345 | 20 | 0 | 3.2 | 11.3 | 0.00 | 0.00 | 0.00 | 64 | 1014.1 |
| 20260831210844 | 20 | 20 | 6.4 | 12.9 | 0.00 | 0.00 | 0.00 | 64 | 1014.1 |
| 20260831210340 | 20 | 51 | 1.6 | 4.8 | 0.00 | 0.00 | 0.00 | 63 | 1014.1 |
| 20260831205836 | 20 | 310 | 6.4 | 9.7 | 0.00 | 0.00 | 0.00 | 61 | 1014.1 |
| 20260831205331 | 20 | 110 | 1.6 | 9.7 | 0.00 | 0.00 | 0.00 | 62 | 1014.5 |
| 20260831204826 | 20 | 39 | 1.6 | 4.8 | 0.00 | 0.00 | 0.00 | 63 | 1014.1 |
| 20260831204325 | 19 | 14 | 3.2 | 6.4 | 0.00 | 0.00 | 0.00 | 63 | 1014.5 |
| 20260831203824 | 20 | 88 | 4.8 | 9.7 | 0.00 | 0.00 | 0.00 | 63 | 1014.5 |
| 20260831203319 | 20 | 71 | 6.4 | 6.4 | 0.00 | 0.00 | 0.00 | 62 | 1014.5 |
| 20260831202817 | 20 | 83 | 4.8 | 9.7 | 0.00 | 0.00 | 0.00 | 63 | 1014.8 |
| 20260831202312 | 20 | 290 | 6.4 | 9.7 | 0.00 | 0.00 | 0.00 | 62 | 1014.8 |
| 20260831201807 | 19 | 61 | 4.8 | 9.7 | 0.00 | 0.00 | 0.00 | 63 | 1014.8 |
| 20260831201305 | 19 | 26 | 4.8 | 6.4 | 0.00 | 0.00 | 0.00 | 64 | 1014.8 |
| 20260831200801 | 20 | 15 | 3.2 | 6.4 | 0.00 | 0.00 | 0.00 | 64 | 1014.8 |
| 20260831200256 | 19 | 10 | 3.2 | 6.4 | 0.00 | 0.00 | 0.00 | 65 | 1014.8 |
| 20260831195751 | 20 | 253 | 3.2 | 6.4 | 0.00 | 0.00 | 0.00 | 63 | 1014.8 |
| 20260831195247 | 20 | 53 | 8.0 | 11.3 | 0.00 | 0.00 | 0.00 | 63 | 1014.8 |
| 20260831194742 | 20 | 192 | 3.2 | 4.8 | 0.00 | 0.00 | 0.00 | 64 | 1014.8 |
| 20260831194238 | 20 | 74 | 1.6 | 4.8 | 0.00 | 0.00 | 0.00 | 63 | 1014.8 |
| 20260831193731 | 18 | 349 | 3.2 | 12.9 | 0.00 | 0.00 | 0.00 | 66 | 1014.8 |
| 20260831193227 | 20 | 25 | 1.6 | 4.8 | 0.00 | 0.00 | 0.00 | 64 | 1015.2 |
| 20260831192722 | 18 | 357 | 3.2 | 9.7 | 0.00 | 0.00 | 0.00 | 66 | 1015.2 |
| 20260831192217 | 18 | 283 | 3.2 | 12.9 | 0.00 | 0.00 | 0.00 | 67 | 1015.2 |
| 20260831191713 | 18 | 86 | 1.6 | 4.8 | 0.00 | 0.00 | 0.00 | 67 | 1015.2 |
| 20260831191209 | 18 | 70 | 4.8 | 11.3 | 0.00 | 0.00 | 0.00 | 68 | 1015.5 |
| 20260831190704 | 18 | 42 | 4.8 | 6.4 | 0.00 | 0.00 | 0.00 | 67 | 1015.2 |
| 20260831190203 | 18 | 41 | 3.2 | 3.2 | 0.00 | 0.00 | 0.00 | 67 | 1015.2 |
| 20260831185659 | 18 | 298 | 4.8 | 6.4 | 0.00 | 0.00 | 0.00 | 68 | 1015.2 |
| 20260831185154 | 17 | 298 | 3.2 | 4.8 | 0.00 | 0.00 | 0.00 | 70 | 1015.5 |
| 20260831184653 | 17 | 76 | 1.6 | 4.8 | 0.00 | 0.00 | 0.00 | 70 | 1015.8 |
| 20260831184149 | 17 | 286 | 4.8 | 6.4 | 0.00 | 0.00 | 0.00 | 71 | 1015.5 |
| 20260831183648 | 17 | 28 | 4.8 | 4.8 | 0.00 | 0.00 | 0.00 | 70 | 1015.5 |
| 20260831183148 | 17 | 95 | 3.2 | 4.8 | 0.00 | 0.00 | 0.00 | 71 | 1015.5 |
| 20260831182647 | 18 | 87 | 3.2 | 4.8 | 0.00 | 0.00 | 0.00 | 70 | 1015.8 |
| 20260831182143 | 18 | 90 | 0.0 | 4.8 | 0.00 | 0.00 | 0.00 | 72 | 1015.8 |
| 20260831181637 | 17 | 109 | 1.6 | 3.2 | 0.00 | 0.00 | 0.00 | 72 | 1015.8 |
| 20260831181132 | 17 | 209 | 1.6 | 4.8 | 0.00 | 0.00 | 0.00 | 74 | 1015.8 |
| 20260831180627 | 16 | 126 | 3.2 | 6.4 | 0.00 | 0.00 | 0.00 | 75 | 1015.8 |
| 20260831180122 | 16 | 340 | 3.2 | 4.8 | 0.00 | 0.00 | 0.00 | 77 | 1015.8 |
| 20260831175616 | 16 | 74 | 3.2 | 9.7 | 0.00 | 0.00 | 0.00 | 76 | 1015.8 |
| 20260831175114 | 16 | 72 | 3.2 | 6.4 | 0.00 | 0.00 | 0.00 | 76 | 1015.8 |
| 20260831174613 | 16 | 91 | 3.2 | 6.4 | 0.00 | 0.00 | 0.00 | 76 | 1015.8 |
| 20260831174108 | 16 | 96 | 0.0 | 9.7 | 0.00 | 0.00 | 0.00 | 77 | 1016.2 |
| 20260831173606 | 16 | 57 | 3.2 | 11.3 | 0.00 | 0.00 | 0.00 | 77 | 1015.8 |
| 20260831173102 | 16 | 61 | 1.6 | 9.7 | 0.00 | 0.00 | 0.00 | 77 | 1015.8 |
| 20260831172557 | 16 | 102 | 3.2 | 9.7 | 0.00 | 0.00 | 0.00 | 76 | 1016.2 |
| 20260831172052 | 16 | 109 | 3.2 | 6.4 | 0.00 | 0.00 | 0.00 | 76 | 1016.2 |
| 20260831171547 | 16 | 310 | 4.8 | 9.7 | 0.00 | 0.00 | 0.00 | 75 | 1016.2 |
| 20260831171044 | 16 | 110 | 1.6 | 6.4 | 0.00 | 0.00 | 0.00 | 77 | 1016.2 |
| 20260831170540 | 16 | 87 | 3.2 | 9.7 | 0.00 | 0.00 | 0.00 | 76 | 1016.2 |
| 20260831170038 | 16 | 315 | 4.8 | 9.7 | 0.00 | 0.00 | 0.00 | 77 | 1016.2 |
| 20260831165537 | 16 | 76 | 3.2 | 4.8 | 0.00 | 0.00 | 0.00 | 77 | 1015.8 |
| 20260831165034 | 15 | 316 | 3.2 | 6.4 | 0.00 | 0.00 | 0.00 | 78 | 1016.2 |
| 20260831164530 | 15 | 84 | 3.2 | 4.8 | 0.00 | 0.00 | 0.00 | 80 | 1016.2 |
| 20260831164025 | 15 | 71 | 3.2 | 4.8 | 0.00 | 0.00 | 0.00 | 80 | 1016.2 |
| 20260831163520 | 15 | 352 | 0.0 | 1.6 | 0.00 | 0.00 | 0.00 | 81 | 1016.2 |
| 20260831163016 | 15 | 11 | 1.6 | 1.6 | 0.00 | 0.00 | 0.00 | 82 | 1016.5 |
| 20260831162515 | 15 | 30 | 0.0 | 3.2 | 0.00 | 0.00 | 0.00 | 82 | 1016.2 |
| 20260831162012 | 14 | 18 | 1.6 | 3.2 | 0.00 | 0.00 | 0.00 | 83 | 1016.2 |
| 20260831161509 | 14 | 1 | 1.6 | 3.2 | 0.00 | 0.00 | 0.00 | 83 | 1016.2 |
| 20260831161005 | 14 | 356 | 4.8 | 4.8 | 0.00 | 0.00 | 0.00 | 84 | 1016.5 |
| 20260831160504 | 13 | 258 | 4.8 | 9.7 | 0.00 | 0.00 | 0.00 | 85 | 1016.5 |
| 20260831155959 | 13 | 100 | 0.0 | 3.2 | 0.00 | 0.00 | 0.00 | 86 | 1016.5 |
| 20260831155454 | 13 | 61 | 1.6 | 4.8 | 0.00 | 0.00 | 0.00 | 87 | 1016.2 |
| 20260831154949 | 13 | 308 | 1.6 | 4.8 | 0.00 | 0.00 | 0.00 | 90 | 1016.5 |
| 20260831154446 | 13 | 307 | 3.2 | 4.8 | 0.00 | 0.00 | 0.00 | 91 | 1016.5 |
| 20260831153944 | 13 | 147 | 0.0 | 1.6 | 0.00 | 0.00 | 0.00 | 92 | 1016.9 |
| 20260831153440 | 13 | 105 | 0.0 | 4.8 | 0.00 | 0.00 | 0.00 | 93 | 1016.5 |
| 20260831152937 | 12 | 330 | 4.8 | 4.8 | 0.00 | 0.00 | 0.00 | 94 | 1016.5 |
| 20260831152432 | 12 | 314 | 0.0 | 3.2 | 0.00 | 0.00 | 0.00 | 94 | 1016.5 |
| 20260831151927 | 12 | 124 | 3.2 | 4.8 | 0.00 | 0.00 | 0.00 | 95 | 1016.5 |
| 20260831151426 | 12 | 359 | 0.0 | 3.2 | 0.00 | 0.00 | 0.00 | 95 | 1016.9 |
| 20260831150921 | 12 | 73 | 1.6 | 4.8 | 0.00 | 0.00 | 0.00 | 95 | 1016.5 |
| 20260831150417 | 12 | 82 | 1.6 | 6.4 | 0.00 | 0.00 | 0.00 | 95 | 1016.5 |
| 20260831145916 | 12 | 80 | 1.6 | 1.6 | 0.00 | 0.00 | 0.00 | 95 | 1016.9 |
| 20260831145412 | 12 | 99 | 0.0 | 4.8 | 0.00 | 0.00 | 0.00 | 95 | 1016.5 |
| 20260831144908 | 12 | 24 | 3.2 | 4.8 | 0.00 | 0.00 | 0.00 | 95 | 1016.9 |
| 20260831144403 | 12 | 25 | 0.0 | 4.8 | 0.00 | 0.00 | 0.00 | 95 | 1016.9 |
| 20260831143858 | 12 | 178 | 0.0 | 4.8 | 0.00 | 0.00 | 0.00 | 95 | 1016.5 |
| 20260831143348 | 12 | 334 | 3.2 | 6.4 | 0.00 | 0.00 | 0.00 | 95 | 1016.9 |
| 20260831142843 | 12 | 80 | 0.0 | 1.6 | 0.00 | 0.00 | 0.00 | 95 | 1016.5 |
| 20260831142338 | 12 | 340 | 1.6 | 3.2 | 0.00 | 0.00 | 0.00 | 95 | 1016.9 |
| 20260831141832 | 11 | 95 | 0.0 | 1.6 | 0.00 | 0.00 | 0.00 | 95 | 1016.5 |
| 20260831141327 | 11 | 28 | 0.0 | 3.2 | 0.00 | 0.00 | 0.00 | 95 | 1016.5 |
| 20260831140821 | 11 | 339 | 3.2 | 4.8 | 0.00 | 0.00 | 0.00 | 95 | 1016.5 |
| 20260831140316 | 11 | 91 | 0.0 | 1.6 | 0.00 | 0.00 | 0.00 | 95 | 1016.5 |
| 20260831135814 | 11 | 96 | 0.0 | 3.2 | 0.00 | 0.00 | 0.00 | 95 | 1016.5 |
| 20260831135310 | 11 | 58 | 1.6 | 3.2 | 0.00 | 0.00 | 0.00 | 95 | 1016.5 |
| 20260831134805 | 11 | 326 | 1.6 | 6.4 | 0.00 | 0.00 | 0.00 | 95 | 1016.5 |
| 20260831134302 | 11 | 75 | 1.6 | 3.2 | 0.00 | 0.00 | 0.00 | 95 | 1016.9 |
| 20260831133800 | 11 | 21 | 1.6 | 9.7 | 0.00 | 0.00 | 0.00 | 95 | 1016.5 |
| 20260831133255 | 11 | 294 | 1.6 | 3.2 | 0.00 | 0.00 | 0.00 | 95 | 1016.5 |
| 20260831132750 | 11 | 29 | 1.6 | 1.6 | 0.00 | 0.00 | 0.00 | 95 | 1016.5 |
| 20260831132244 | 11 | 79 | 1.6 | 1.6 | 0.00 | 0.00 | 0.00 | 95 | 1016.9 |
| 20260831131738 | 11 | 101 | 0.0 | 11.3 | 0.00 | 0.00 | 0.00 | 95 | 1016.5 |
| 20260831131235 | 11 | 84 | 1.6 | 3.2 | 0.00 | 0.00 | 0.00 | 95 | 1016.9 |
| 20260831130730 | 11 | 187 | 3.2 | 4.8 | 0.00 | 0.00 | 0.00 | 95 | 1016.9 |
| 20260831130226 | 11 | 106 | 0.0 | 3.2 | 0.00 | 0.00 | 0.00 | 95 | 1016.9 |
| 20260831125724 | 11 | 331 | 6.4 | 9.7 | 0.00 | 0.00 | 0.00 | 95 | 1016.9 |
| 20260831125221 | 11 | 43 | 1.6 | 3.2 | 0.00 | 0.00 | 0.00 | 95 | 1016.9 |
| 20260831124715 | 11 | 86 | 1.6 | 4.8 | 0.00 | 0.00 | 0.00 | 95 | 1016.9 |
| 20260831124211 | 11 | 12 | 3.2 | 4.8 | 0.00 | 0.00 | 0.00 | 95 | 1016.9 |
| 20260831123711 | 11 | 95 | 0.0 | 4.8 | 0.00 | 0.00 | 0.00 | 94 | 1016.9 |
| 20260831123210 | 11 | 28 | 1.6 | 4.8 | 0.00 | 0.00 | 0.00 | 94 | 1017.2 |
| 20260831122709 | 11 | 27 | 1.6 | 3.2 | 0.00 | 0.00 | 0.00 | 94 | 1016.9 |
| 20260831122200 | 11 | 324 | 1.6 | 1.6 | 0.00 | 0.00 | 0.00 | 94 | 1017.2 |
| 20260831121659 | 12 | 94 | 1.6 | 9.7 | 0.00 | 0.00 | 0.00 | 94 | 1017.2 |
| 20260831121156 | 12 | 88 | 1.6 | 3.2 | 0.00 | 0.00 | 0.00 | 94 | 1016.9 |
| 20260831120651 | 12 | 31 | 3.2 | 3.2 | 0.00 | 0.00 | 0.00 | 94 | 1017.2 |
| 20260831120145 | 12 | 58 | 1.6 | 1.6 | 0.00 | 0.00 | 0.00 | 94 | 1017.2 |
| 20260831115642 | 12 | 295 | 1.6 | 4.8 | 0.00 | 0.00 | 0.00 | 94 | 1017.5 |
| 20260831115137 | 12 | 102 | 0.0 | 1.6 | 0.00 | 0.00 | 0.00 | 94 | 1017.5 |
| 20260831114636 | 12 | 75 | 1.6 | 3.2 | 0.00 | 0.00 | 0.00 | 94 | 1017.5 |
| 20260831114131 | 12 | 41 | 3.2 | 3.2 | 0.00 | 0.00 | 0.00 | 94 | 1017.5 |
| 20260831113630 | 12 | 356 | 3.2 | 4.8 | 0.00 | 0.00 | 0.00 | 94 | 1017.5 |
| 20260831113126 | 12 | 56 | 3.2 | 4.8 | 0.00 | 0.00 | 0.00 | 94 | 1017.5 |
| 20260831112624 | 12 | 59 | 1.6 | 1.6 | 0.00 | 0.00 | 0.00 | 94 | 1017.5 |
| 20260831112119 | 12 | 315 | 6.4 | 6.4 | 0.00 | 0.00 | 0.00 | 94 | 1017.9 |
| 20260831111610 | 12 | 147 | 1.6 | 1.6 | 0.00 | 0.00 | 0.00 | 93 | 1017.9 |
| 20260831111105 | 12 | 104 | 0.0 | 1.6 | 0.00 | 0.00 | 0.00 | 93 | 1017.5 |
| 20260831110600 | 12 | 300 | 4.8 | 9.7 | 0.00 | 0.00 | 0.00 | 93 | 1017.9 |
| 20260831110055 | 12 | 75 | 1.6 | 9.7 | 0.00 | 0.00 | 0.00 | 93 | 1017.9 |
| 20260831105554 | 12 | 51 | 1.6 | 4.8 | 0.00 | 0.00 | 0.00 | 93 | 1017.9 |
| 20260831105049 | 12 | 56 | 0.0 | 4.8 | 0.00 | 0.00 | 0.00 | 93 | 1017.5 |
| 20260831104546 | 12 | 322 | 3.2 | 6.4 | 0.00 | 0.00 | 0.00 | 93 | 1017.9 |
| 20260831104042 | 12 | 80 | 1.6 | 4.8 | 0.00 | 0.00 | 0.00 | 93 | 1017.9 |
| 20260831103537 | 12 | 82 | 1.6 | 4.8 | 0.00 | 0.00 | 0.00 | 93 | 1017.9 |
| 20260831103033 | 12 | 312 | 3.2 | 6.4 | 0.00 | 0.00 | 0.00 | 93 | 1017.9 |
| 20260831102532 | 12 | 307 | 3.2 | 3.2 | 0.00 | 0.00 | 0.00 | 92 | 1017.9 |
| 20260831102028 | 12 | 92 | 1.6 | 1.6 | 0.00 | 0.00 | 0.00 | 92 | 1017.9 |
| 20260831101522 | 12 | 91 | 1.6 | 4.8 | 0.00 | 0.00 | 0.00 | 92 | 1017.9 |
| 20260831101019 | 12 | 329 | 1.6 | 3.2 | 0.00 | 0.00 | 0.00 | 92 | 1017.9 |
| 20260831100514 | 12 | 350 | 1.6 | 9.7 | 0.00 | 0.00 | 0.00 | 92 | 1018.2 |
| 20260831100010 | 12 | 81 | 1.6 | 6.4 | 0.00 | 0.00 | 0.00 | 92 | 1018.2 |
| 20260831095509 | 12 | 62 | 1.6 | 3.2 | 0.00 | 0.00 | 0.00 | 92 | 1018.2 |
| 20260831095004 | 12 | 25 | 1.6 | 4.8 | 0.00 | 0.00 | 0.00 | 91 | 1018.2 |
| 20260831094500 | 12 | 109 | 0.0 | 6.4 | 0.00 | 0.00 | 0.00 | 91 | 1018.2 |
| 20260831093955 | 12 | 90 | 1.6 | 1.6 | 0.00 | 0.00 | 0.00 | 91 | 1018.2 |
| 20260831093450 | 12 | 94 | 3.2 | 3.2 | 0.00 | 0.00 | 0.00 | 91 | 1018.5 |
| 20260831092947 | 12 | 152 | 1.6 | 3.2 | 0.00 | 0.00 | 0.00 | 91 | 1018.5 |
| 20260831092442 | 12 | 79 | 0.0 | 3.2 | 0.00 | 0.00 | 0.00 | 90 | 1018.5 |
| 20260831091937 | 12 | 98 | 1.6 | 1.6 | 0.00 | 0.00 | 0.00 | 90 | 1018.5 |
| 20260831091433 | 12 | 57 | 1.6 | 3.2 | 0.00 | 0.00 | 0.00 | 90 | 1018.5 |
| 20260831090927 | 13 | 89 | 0.0 | 1.6 | 0.00 | 0.00 | 0.00 | 90 | 1018.5 |
| 20260831090424 | 13 | 297 | 4.8 | 9.7 | 0.00 | 0.00 | 0.00 | 90 | 1018.5 |
| 20260831085920 | 13 | 58 | 1.6 | 6.4 | 0.00 | 0.00 | 0.00 | 90 | 1018.5 |
| 20260831085415 | 13 | 43 | 1.6 | 6.4 | 0.00 | 0.00 | 0.00 | 89 | 1018.5 |
| 20260831084914 | 13 | 74 | 1.6 | 9.7 | 0.00 | 0.00 | 0.00 | 89 | 1018.5 |
| 20260831084410 | 13 | 75 | 1.6 | 4.8 | 0.00 | 0.00 | 0.00 | 89 | 1018.5 |
| 20260831083907 | 13 | 344 | 3.2 | 4.8 | 0.00 | 0.00 | 0.00 | 90 | 1018.5 |
| 20260831083402 | 13 | 77 | 1.6 | 3.2 | 0.00 | 0.00 | 0.00 | 89 | 1018.9 |
| 20260831082900 | 13 | 41 | 3.2 | 4.8 | 0.00 | 0.00 | 0.00 | 89 | 1018.9 |
| 20260831082400 | 13 | 99 | 0.0 | 1.6 | 0.00 | 0.00 | 0.00 | 89 | 1018.9 |
| 20260831081856 | 13 | 82 | 1.6 | 1.6 | 0.00 | 0.00 | 0.00 | 89 | 1018.9 |
| 20260831081351 | 13 | 104 | 0.0 | 1.6 | 0.00 | 0.00 | 0.00 | 89 | 1018.9 |
| 20260831080847 | 13 | 69 | 0.0 | 1.6 | 0.00 | 0.00 | 0.00 | 89 | 1019.2 |
| 20260831080342 | 13 | 357 | 3.2 | 3.2 | 0.00 | 0.00 | 0.00 | 89 | 1019.2 |
| 20260831075838 | 13 | 73 | 0.0 | 3.2 | 0.00 | 0.00 | 0.00 | 89 | 1019.2 |
| 20260831075332 | 13 | 52 | 1.6 | 1.6 | 0.00 | 0.00 | 0.00 | 89 | 1019.2 |
| 20260831074828 | 13 | 105 | 0.0 | 1.6 | 0.00 | 0.00 | 0.00 | 89 | 1019.2 |
| 20260831074327 | 13 | 18 | 3.2 | 4.8 | 0.00 | 0.00 | 0.00 | 89 | 1019.2 |
| 20260831073823 | 13 | 86 | 0.0 | 4.8 | 0.00 | 0.00 | 0.00 | 89 | 1019.2 |
| 20260831073321 | 13 | 76 | 0.0 | 1.6 | 0.00 | 0.00 | 0.00 | 89 | 1019.2 |
| 20260831072817 | 13 | 95 | 0.0 | 0.0 | 0.00 | 0.00 | 0.00 | 89 | 1019.6 |
| 20260831072313 | 13 | 92 | 1.6 | 1.6 | 0.00 | 0.00 | 0.00 | 89 | 1019.6 |
| 20260831071809 | 13 | 69 | 0.0 | 1.6 | 0.00 | 0.00 | 0.00 | 89 | 1019.6 |
| 20260831071307 | 13 | 101 | 0.0 | 1.6 | 0.00 | 0.00 | 0.00 | 89 | 1019.6 |
| 20260831070803 | 13 | 97 | 0.0 | 1.6 | 0.00 | 0.00 | 0.00 | 89 | 1019.6 |
| 20260831070302 | 13 | 98 | 0.0 | 1.6 | 0.00 | 0.00 | 0.00 | 89 | 1019.6 |
| 20260831065801 | 13 | 98 | 0.0 | 3.2 | 0.00 | 0.00 | 0.00 | 88 | 1019.6 |
| 20260831065259 | 13 | 90 | 0.0 | 1.6 | 0.00 | 0.00 | 0.00 | 88 | 1019.9 |
| 20260831064754 | 13 | 93 | 0.0 | 1.6 | 0.00 | 0.00 | 0.00 | 88 | 1019.9 |
| 20260831064249 | 13 | 100 | 0.0 | 1.6 | 0.00 | 0.00 | 0.00 | 88 | 1019.9 |
| 20260831063745 | 13 | 95 | 0.0 | 0.0 | 0.00 | 0.00 | 0.00 | 88 | 1019.9 |
| 20260831063239 | 13 | 90 | 0.0 | 3.2 | 0.00 | 0.00 | 0.00 | 88 | 1019.9 |
| 20260831062734 | 13 | 94 | 0.0 | 0.0 | 0.00 | 0.00 | 0.00 | 88 | 1020.2 |
| 20260831062229 | 13 | 91 | 0.0 | 1.6 | 0.00 | 0.00 | 0.00 | 87 | 1019.9 |
| 20260831061727 | 13 | 97 | 0.0 | 1.6 | 0.00 | 0.00 | 0.00 | 87 | 1019.9 |
| 20260831061222 | 13 | 47 | 3.2 | 3.2 | 0.00 | 0.00 | 0.00 | 87 | 1020.2 |
| 20260831060719 | 13 | 70 | 0.0 | 1.6 | 0.00 | 0.00 | 0.00 | 87 | 1020.2 |
| 20260831060218 | 13 | 91 | 0.0 | 1.6 | 0.00 | 0.00 | 0.00 | 86 | 1020.2 |
| 20260831055713 | 13 | 88 | 0.0 | 1.6 | 0.00 | 0.00 | 0.00 | 86 | 1020.2 |
| 20260831055207 | 13 | 95 | 1.6 | 1.6 | 0.00 | 0.00 | 0.00 | 86 | 1020.2 |
| 20260831054702 | 13 | 94 | 0.0 | 1.6 | 0.00 | 0.00 | 0.00 | 86 | 1020.2 |
| 20260831054201 | 13 | 82 | 1.6 | 3.2 | 0.00 | 0.00 | 0.00 | 86 | 1020.2 |
| 20260831053656 | 13 | 111 | 0.0 | 1.6 | 0.00 | 0.00 | 0.00 | 86 | 1020.2 |
| 20260831053154 | 13 | 91 | 0.0 | 1.6 | 0.00 | 0.00 | 0.00 | 86 | 1020.2 |
| 20260831052649 | 13 | 312 | 1.6 | 1.6 | 0.00 | 0.00 | 0.00 | 85 | 1020.2 |
| 20260831052148 | 13 | 103 | 1.6 | 3.2 | 0.00 | 0.00 | 0.00 | 85 | 1020.6 |
| 20260831051646 | 13 | 104 | 0.0 | 1.6 | 0.00 | 0.00 | 0.00 | 85 | 1020.6 |
| 20260831051145 | 14 | 87 | 1.6 | 3.2 | 0.00 | 0.00 | 0.00 | 85 | 1020.6 |
| 20260831050640 | 14 | 116 | 1.6 | 3.2 | 0.00 | 0.00 | 0.00 | 84 | 1020.6 |
| 20260831050139 | 14 | 102 | 0.0 | 3.2 | 0.00 | 0.00 | 0.00 | 84 | 1020.6 |
| 20260831045638 | 14 | 95 | 0.0 | 1.6 | 0.00 | 0.00 | 0.00 | 83 | 1020.6 |
| 20260831045133 | 14 | 313 | 0.0 | 3.2 | 0.00 | 0.00 | 0.00 | 83 | 1020.6 |
| 20260831044629 | 15 | 10 | 1.6 | 3.2 | 0.00 | 0.00 | 0.00 | 83 | 1020.6 |
| 20260831044124 | 15 | 102 | 0.0 | 0.0 | 0.00 | 0.00 | 0.00 | 83 | 1020.9 |
| 20260831043619 | 15 | 87 | 1.6 | 3.2 | 0.00 | 0.00 | 0.00 | 82 | 1020.9 |
| 20260831043114 | 15 | 87 | 0.0 | 3.2 | 0.00 | 0.00 | 0.00 | 82 | 1020.9 |
| 20260831042613 | 15 | 106 | 1.6 | 3.2 | 0.00 | 0.00 | 0.00 | 81 | 1020.9 |
| 20260831042103 | 15 | 316 | 1.6 | 3.2 | 0.00 | 0.00 | 0.00 | 81 | 1020.9 |
| 20260831041558 | 15 | 317 | 6.4 | 9.7 | 0.00 | 0.00 | 0.00 | 81 | 1020.9 |
| 20260831041057 | 15 | 79 | 0.0 | 1.6 | 0.00 | 0.00 | 0.00 | 80 | 1020.9 |